Weather History for West Plains, MO

Change the Weather History Date:

Friday, November 30, 2012

  Actual Average Record
Temperature  
Mean Temperature 50 °F 41 °F  
Max Temperature 64 °F 51 °F 71 °F (1960)
Min Temperature 35 °F 31 °F 5 °F (1976)
Degree Days  
Heating Degree Days 15 24  
Month to date heating degree days 576 550  
Since 1 July heating degree days 944 852  
Cooling Degree Days 0 0  
Month to date cooling degree days 0 2  
Year to date cooling degree days 1739 1354  
Moisture  
Dew Point 40 °F    
Average Humidity 67    
Maximum Humidity 86    
Minimum Humidity 47    
Precipitation  
Precipitation 0.00 in 0.14 in 3.82 in (2006)
Month to date precipitation 1.66 4.58  
Year to date precipitation 29.92 42.58  
Sea Level Pressure  
Sea Level Pressure 30.14 in    
Wind  
Wind Speed 6 mph (South)    
Max Wind Speed 12 mph    
Max Gust Speed 15 mph    
Visibility 9 miles    
Events      
T = Trace of Precipitation, MM = Missing Value Source: NWS Daily Summary

Daily Weather History Graph

Daily Weather History Graph

Search for Another Location

Airport:

Trip Planner

Search our weather history database for the weather conditions in past years. The results will help you decide how hot, cold, wet, or windy it might be!

Date:

Astronomy

Nov. 30, 2012 Rise Set
Actual Time 7:01 AM CST 4:51 PM CST
Civil Twilight 6:32 AM CST 5:19 PM CST
Nautical Twilight 6:00 AM CST 5:51 PM CST
Astronomical Twilight 5:29 AM CST 6:23 PM CST
Moon 6:46 PM CST 8:33 AM CST
Length of Visible Light 10h 46m
Length of Day
9h 49m
Waning Gibbous, 96% of the Moon is Illuminated
Nov 30
Waning Gibbous
Dec 6
Last Quarter
Dec 13
New
Dec 19
First Quarter
Dec 28
Full

Hourly Weather History & Observations

Time (CST) Temp. Windchill Dew Point Humidity Pressure Visibility Wind Dir Wind Speed Gust Speed Precip Events Conditions
12:53 AM 39.0 °F 35.7 °F 30.0 °F 70% 30.18 in 10.0 mi SSW 4.6 mph - N/A   Clear
1:53 AM 42.1 °F 37.7 °F 30.0 °F 62% 30.18 in 10.0 mi South 6.9 mph - N/A   Clear
2:53 AM 39.0 °F - 28.9 °F 67% 30.18 in 10.0 mi Calm Calm - N/A   Clear
3:53 AM 37.0 °F 33.3 °F 28.9 °F 73% 30.16 in 10.0 mi South 4.6 mph - N/A   Clear
4:53 AM 39.9 °F 37.8 °F 28.9 °F 65% 30.15 in 10.0 mi South 3.5 mph - N/A   Clear
6:53 AM 37.0 °F - 28.9 °F 73% 30.17 in 10.0 mi Calm Calm - N/A   Clear
7:53 AM 41.0 °F 39.0 °F 30.9 °F 67% 30.17 in 10.0 mi South 3.5 mph - N/A   Clear
8:53 AM 50.0 °F - 33.1 °F 52% 30.17 in 10.0 mi SW 6.9 mph - N/A   Clear
9:53 AM 54.0 °F - 34.0 °F 47% 30.18 in 10.0 mi SSW 8.1 mph - N/A   Clear
10:53 AM 57.9 °F - 37.9 °F 47% 30.17 in 10.0 mi SSW 8.1 mph - N/A   Clear
11:53 AM 61.0 °F - 41.0 °F 48% 30.14 in 10.0 mi SSW 6.9 mph - N/A   Clear
12:53 PM 62.1 °F - 42.1 °F 48% 30.12 in 10.0 mi South 9.2 mph - N/A   Clear
1:53 PM 63.0 °F - 44.1 °F 50% 30.10 in 10.0 mi South 6.9 mph - N/A   Clear
2:53 PM 64.0 °F - 45.0 °F 50% 30.09 in 10.0 mi SW 5.8 mph - N/A   Clear
3:53 PM 62.1 °F - 44.1 °F 52% 30.10 in 10.0 mi South 5.8 mph - N/A   Clear
4:53 PM 57.9 °F - 43.0 °F 58% 30.11 in 10.0 mi SE 3.5 mph - N/A   Clear
5:53 PM 55.9 °F - 43.0 °F 62% 30.12 in 10.0 mi SE 4.6 mph - N/A   Clear
6:53 PM 54.0 °F - 44.1 °F 69% 30.13 in 10.0 mi SSE 8.1 mph - N/A   Clear
7:53 PM 53.1 °F - 46.0 °F 77% 30.13 in 10.0 mi South 5.8 mph - N/A   Clear
8:53 PM 53.1 °F - 46.9 °F 80% 30.12 in 10.0 mi South 5.8 mph - N/A   Clear
9:53 PM 51.1 °F - 46.0 °F 83% 30.13 in 8.0 mi South 4.6 mph - N/A   Scattered Clouds
10:03 PM 51.8 °F - 46.4 °F 82% 30.13 in 9.0 mi South 6.9 mph - N/A   Mostly Cloudy
10:27 PM 51.8 °F - 46.4 °F 82% 30.14 in 8.0 mi SSW 5.8 mph - N/A   Scattered Clouds
10:43 PM 53.6 °F - 48.2 °F 82% 30.13 in 8.0 mi South 8.1 mph - N/A   Mostly Cloudy
10:53 PM 52.0 °F - 48.0 °F 86% 30.13 in 8.0 mi South 8.1 mph - N/A   Mostly Cloudy
11:09 PM 51.8 °F - 46.4 °F 82% 30.14 in 7.0 mi South 5.8 mph - N/A   Scattered Clouds
11:18 PM 51.8 °F - 46.4 °F 82% 30.13 in 7.0 mi SSE 5.8 mph - N/A   Mostly Cloudy
11:53 PM 52.0 °F - 46.9 °F 83% 30.12 in 7.0 mi South 6.9 mph - N/A   Overcast